EW1931 Weather Reports


time (UTC)temp
F
wind
direction
speed
knots
gust
knots
rain 1hr
in
rain 24hr
in
rain mn
in
humidity
%
barometer
mb
20260906193044 66 42 9.6 15.6 0.00 0.00 0.00 69 1011.7
20260906191519 66 27 9.6 17.4 0.00 0.00 0.00 70 1011.8
20260906190011 65 24 13.9 20.0 0.00 0.00 0.00 70 1011.8
20260906184551 63 18 14.8 23.5 0.00 0.00 0.00 74 1011.9
20260906183047 61 5 16.5 20.9 0.00 0.00 0.00 76 1012.2
20260906181541 59 360 12.2 19.1 0.00 0.00 0.00 79 1012.9
20260906180032 59 331 13.9 20.9 0.00 0.00 0.00 80 1013.0
20260906174505 59 317 15.6 20.0 0.00 0.00 0.00 82 1013.2
20260906173003 59 11 10.4 16.5 0.00 0.00 0.00 86 1013.3
20260906171603 58 313 10.4 16.5 0.00 0.00 0.00 87 1013.3
20260906170055 59 360 7.8 12.2 0.00 0.00 0.00 87 1013.3
20260906164545 59 338 7.0 10.4 0.00 0.00 0.00 87 1013.3
20260906163039 60 338 7.0 9.6 0.00 0.00 0.00 86 1013.2
20260906161538 60 23 4.3 8.7 0.00 0.00 0.00 87 1013.4
20260906160038 60 40 4.3 9.6 0.00 0.00 0.00 87 1013.4
20260906154542 60 5 6.1 8.7 0.00 0.00 0.00 87 1013.6
20260906153038 60 30 7.0 9.6 0.00 0.00 0.00 88 1013.6
20260906151518 60 40 7.8 11.3 0.00 0.00 0.00 87 1013.8
20260906150018 60 30 9.6 13.0 0.00 0.00 0.00 87 1013.8
20260906144611 60 47 13.0 17.4 0.00 0.00 0.00 87 1013.5
20260906143109 60 49 13.9 17.4 0.00 0.00 0.00 86 1013.5
20260906141539 59 38 12.2 15.6 0.00 0.00 0.00 86 1013.8
20260906140039 58 46 7.0 9.6 0.00 0.00 0.00 87 1014.2
20260906134528 58 21 7.0 10.4 0.00 0.00 0.00 88 1014.0
20260906133021 58 17 7.0 11.3 0.00 0.00 0.00 89 1014.0
20260906131509 57 360 8.7 13.0 0.00 0.00 0.00 89 1013.9
20260906130003 57 13 7.8 10.4 0.00 0.00 0.00 90 1014.5
20260906124546 56 5 6.1 12.2 0.00 0.00 0.00 91 1014.3
20260906123045 56 327 8.7 13.0 0.00 0.01 0.00 92 1013.9
20260906121526 55 24 9.6 12.2 0.00 0.01 0.00 92 1014.0
20260906120026 55 12 10.4 13.9 0.00 0.01 0.00 92 1013.8
20260906114525 54 13 10.4 14.8 0.00 0.01 0.00 92 1013.7
20260906113009 54 15 10.4 15.6 0.00 0.01 0.00 92 1013.9
20260906111551 54 12 10.4 13.9 0.00 0.01 0.00 91 1014.0
20260906110051 54 17 10.4 13.9 0.00 0.01 0.00 91 1013.9
20260906104535 54 360 10.4 15.6 0.00 0.01 0.00 91 1013.9
20260906103034 55 13 13.0 20.9 0.00 0.01 0.00 90 1014.1
20260906101512 55 13 13.9 20.0 0.00 0.01 0.00 90 1014.1
20260906100013 55 22 13.9 20.0 0.00 0.01 0.00 89 1014.1
20260906094616 55 19 14.8 21.7 0.00 0.01 0.00 89 1013.9
20260906093119 55 10 14.8 20.9 0.00 0.01 0.00 89 1014.0
20260906091548 55 314 13.9 21.7 0.00 0.01 0.00 88 1014.0
20260906090032 55 5 15.6 20.9 0.00 0.01 0.00 88 1014.2
20260906084528 55 15 13.9 20.0 0.00 0.01 0.00 87 1014.3
20260906083010 55 315 13.9 20.0 0.00 0.01 0.00 87 1014.4
20260906081513 55 13 13.9 19.1 0.00 0.01 0.00 86 1014.6
20260906080049 56 360 16.5 20.9 0.00 0.01 0.00 85 1014.5
20260906074548 56 360 13.9 20.0 0.00 0.01 0.00 84 1014.8
20260906073036 56 24 14.8 20.9 0.00 0.01 0.00 84 1014.9
20260906071532 57 12 15.6 21.7 0.00 0.01 0.00 83 1015.1
20260906070033 57 360 15.6 19.1 0.00 0.01 0.00 82 1015.3
20260906064531 57 5 13.9 21.7 0.00 0.01 0.00 82 1015.5
20260906063034 57 15 15.6 21.7 0.00 0.01 0.00 82 1015.7
20260906061530 57 12 14.8 19.1 0.00 0.01 0.00 82 1015.6
20260906060027 57 20 13.9 19.1 0.00 0.01 0.00 81 1015.7
20260906054524 58 9 13.9 20.0 0.00 0.01 0.00 80 1015.8
20260906053009 58 16 14.8 20.9 0.00 0.01 0.00 79 1015.6
20260906051504 58 15 14.8 20.0 0.00 0.01 0.00 77 1015.6
20260906050047 58 13 15.6 20.9 0.00 0.01 0.00 76 1015.6
20260906044546 59 13 14.8 21.7 0.00 0.01 0.00 75 1015.4
20260906043025 59 360 14.8 22.6 0.00 0.01 0.00 74 1015.1
20260906041523 59 13 18.2 25.2 0.00 0.01 0.00 73 1014.7
20260906040010 59 5 17.4 22.6 0.00 0.01 0.00 73 1015.0
20260906034502 59 315 14.8 22.6 0.00 0.01 0.00 72 1015.1
20260906033048 60 318 14.8 20.9 0.00 0.01 0.00 71 1015.1
20260906031543 60 5 13.0 20.9 0.00 0.01 0.00 70 1014.7
20260906030040 60 5 13.9 22.6 0.00 0.01 0.00 69 1014.3
20260906024547 61 309 16.5 25.2 0.00 0.01 0.00 68 1014.0
20260906023035 61 5 16.5 24.3 0.00 0.01 0.00 67 1014.0
20260906021533 62 360 14.8 21.7 0.00 0.01 0.00 66 1014.2
20260906020030 63 331 14.8 23.5 0.00 0.01 0.00 65 1014.1
20260906014538 64 360 16.5 22.6 0.00 0.01 0.00 62 1014.0
20260906013037 65 10 13.9 20.9 0.00 0.01 0.00 60 1014.0
20260906011521 67 22 16.5 22.6 0.00 0.01 0.00 56 1013.8
20260906010025 68 17 14.8 20.9 0.00 0.01 0.00 52 1013.7
20260906004519 71 349 15.6 21.7 0.00 0.01 0.00 47 1013.7
20260906003018 74 17 11.3 14.8 0.00 0.01 0.00 38 1013.8
20260906001522 74 5 9.6 17.4 0.00 0.01 0.00 36 1013.7
20260906000057 75 13 11.3 15.6 0.00 0.01 0.00 35 1013.8
20260905234604 75 40 10.4 14.8 0.00 0.01 0.00 35 1013.7
20260905233038 75 65 5.2 13.9 0.00 0.01 0.00 35 1013.7
20260905231540 75 19 7.0 18.2 0.00 0.01 0.00 34 1013.8
20260905230018 75 38 5.2 18.2 0.00 0.01 0.00 34 1013.8
20260905224519 76 48 7.0 14.8 0.00 0.01 0.00 34 1013.6
20260905223059 76 347 7.0 13.9 0.00 0.01 0.00 34 1013.6
20260905221615 76 46 7.0 13.0 0.00 0.01 0.00 34 1013.7
20260905220041 76 52 7.8 18.2 0.00 0.01 0.00 35 1013.7
20260905214539 76 55 2.6 22.6 0.00 0.01 0.00 35 1013.9
20260905213020 75 347 1.7 7.0 0.00 0.01 0.00 37 1014.1
20260905211532 75 17 8.7 15.6 0.00 0.01 0.00 36 1014.0
20260905210100 75 49 7.8 10.4 0.00 0.01 0.00 37 1014.2
20260905204557 75 20 6.1 12.2 0.00 0.01 0.00 37 1014.1
20260905203042 74 335 6.1 9.6 0.00 0.01 0.00 37 1014.2
20260905201539 74 25 7.8 12.2 0.00 0.01 0.00 37 1014.4
20260905200020 73 327 6.1 13.0 0.00 0.01 0.00 38 1014.4
20260905194517 73 330 8.7 14.8 0.00 0.01 0.00 38 1014.5